Project,Study,Ord_Occ,Event_Num,Cast_ID,Date_Time_UTC,Date_Time_PST,Lat_Dec,Lon_Dec,Sta_ID,Line,Sta,Depth,Pressure,PrQ,Temp1,Temp1Q,Temp2,Temp2Q,TempAve,Salt1,Salt1Q,Salt1_Corr,Salt2,Salt2Q,Salt2_Corr,SaltAve_Corr,Ox1,Ox1Q,Ox1_CruiseCorr,Ox1_StaCorr,Ox2,Ox2Q,Ox2_CruiseCorr,Ox2_StaCorr,OxAve_StaCorr,Ox1uM,Ox1uM_CruiseCorr,Ox1uM_StaCorr,Ox2uM,Ox2uM_CruiseCorr,Ox2uM_StaCorr,OxAveuM_StaCorr,FluorV,FluorQ,EstChl_CruiseCorr,EstChl_StaCorr,ISUSV,ISUSQ,EstNO3_CruiseCorr,EstNO3_StaCorr,SigThetaTS1,SigThetaTS1Q,SigThetaTS2,SigThetaTS2Q,BAT,XMiss,TransQ,pH,pHQ,SPAR,SPARQ,PAR,PARQ,PoT1,PoT2,DynHt,SVA,OxSat1,OxSat2,BTL_Depth,BTL_Temp,SaltB,OxB,OxBuM,Chl-a,Phaeo,NO3,NO2,NH4,PO4,SIL
CalCOFI,2007SR,040,42,2007_040d,20-Jul-2020 09:52:07,20-Jul-2020 01:52:07,33.15708,-120.00652,086.7 055.0,086.7,055.0,3.000,3.021,,17.7839,,17.7847,,17.7843,33.6894,,33.6896,33.6896,,33.6912,33.6904,5.4730,,5.7010,5.6640,4.0581,,5.7467,4.5166,5.0903,238.623,248.6104,219.4698,176.931,418.0930,180.0147,199.7423,0.1256,,1.0531,0.7906,-99.0,,-99.0,-99.0,24.3213,,24.3212,,0.8454,80.9494,,8.200,,1.9043E+00,,5.1717E-02,,17.7834,17.7842,0.0121,,100.686,74.657,2,18.573,33.7082,5.638,246.12,0.805,0.106,0.0,0.00,0.00,0.11,0.76
CalCOFI,2007SR,040,42,2007_040d,20-Jul-2020 09:52:16,20-Jul-2020 01:52:16,33.15708,-120.00652,086.7 055.0,086.7,055.0,4.000,4.028,,17.7845,,17.7853,,17.7849,33.6898,,33.6900,33.6898,,33.6914,33.6907,5.4729,,5.7009,5.6639,4.0636,,5.7598,4.5296,5.0968,238.614,248.6011,219.4619,177.171,418.0710,180.5254,199.9937,0.1183,,0.9670,0.7351,-99.0,,-99.0,-99.0,24.3215,,24.3212,,0.8438,80.9810,,8.200,,1.9043E+00,,2.6657E-03,,17.7838,17.7847,0.0200,,100.684,74.759,,,,,,,,,,,,
CalCOFI,2007SR,040,42,2007_040d,20-Jul-2020 09:52:20,20-Jul-2020 01:52:20,33.15708,-120.00652,086.7 055.0,086.7,055.0,5.000,5.036,,17.7830,,17.7836,,17.7833,33.6893,,33.6895,33.6897,,33.6913,33.6904,5.4711,,5.6991,5.6620,4.0664,,5.7665,4.5362,5.0991,238.540,248.5238,219.3972,177.293,417.8900,180.7850,200.0911,0.1209,,0.9976,0.7550,-99.0,,-99.0,-99.0,24.3214,,24.3216,,0.8458,80.9407,,8.200,,1.9043E+00,,-4.317E-04,,17.7821,17.7828,0.0237,,100.649,74.808,,,,,,,,,,,,
CalCOFI,2007SR,040,42,2007_040d,20-Jul-2020 09:52:22,20-Jul-2020 01:52:22,33.15708,-120.00652,086.7 055.0,086.7,055.0,6.000,6.043,,17.7839,,17.7850,,17.7845,33.6896,,33.6898,33.6900,,33.6916,33.6907,5.4705,,5.6984,5.6614,4.0676,,5.7694,4.5390,5.1002,238.513,248.4956,219.3736,177.345,417.8239,180.8956,200.1346,0.1187,,0.9717,0.7382,-99.0,,-99.0,-99.0,24.3215,,24.3215,,0.8440,80.9779,,8.199,,1.9043E+00,,1.0000E-12,,17.7829,17.7840,0.0273,,100.640,74.832,,,,,,,,,,,,
CalCOFI,2007SR,040,42,2007_040d,20-Jul-2020 09:52:23,20-Jul-2020 01:52:23,33.15708,-120.00652,086.7 055.0,086.7,055.0,7.000,7.050,,17.7932,,17.7947,,17.7940,33.6898,,33.6900,33.6902,,33.6918,33.6909,5.4720,,5.7000,5.6630,4.0699,,5.7749,4.5444,5.1037,238.576,248.5614,219.4286,177.446,417.9780,181.1106,200.2696,0.1206,,0.9941,0.7527,-99.0,,-99.0,-99.0,24.3195,,24.3194,,0.8445,80.9676,,8.199,,1.9043E+00,,1.0000E-12,,17.7920,17.7936,0.0309,,100.684,74.888,,,,,,,,,,,,
CalCOFI,2007SR,040,42,2007_040d,20-Jul-2020 09:52:26,20-Jul-2020 01:52:26,33.15708,-120.00652,086.7 055.0,086.7,055.0,8.000,8.057,,17.7930,,17.7955,,17.7943,33.6899,,33.6901,33.6904,,33.6920,33.6911,5.4711,,5.6991,5.6620,4.0698,,5.7746,4.5442,5.1031,238.537,248.5207,219.3945,177.443,417.8826,181.1042,200.2494,0.1160,,0.9399,0.7175,-99.0,,-99.0,-99.0,24.3196,,24.3194,,0.8459,80.9393,,8.199,,1.9043E+00,,1.0000E-12,,17.7916,17.7941,0.0345,,100.668,74.888,,,,,,,,,,,,
CalCOFI,2007SR,040,42,2007_040d,20-Jul-2020 09:52:28,20-Jul-2020 01:52:28,33.15708,-120.00652,086.7 055.0,086.7,055.0,9.000,9.064,,17.7931,,17.7917,,17.7924,33.6899,,33.6901,33.6903,,33.6919,33.6910,5.4717,,5.6997,5.6627,4.0708,,5.7770,4.5465,5.1046,238.565,248.5499,219.4190,177.484,417.9511,181.1914,200.3052,0.1166,,0.9469,0.7221,-99.0,,-99.0,-99.0,24.3196,,24.3203,,0.8455,80.9469,,8.199,,1.9043E+00,,1.0000E-12,,17.7915,17.7902,0.0382,,100.679,74.900,,,,,,,,,,,,
CalCOFI,2007SR,040,42,2007_040d,20-Jul-2020 09:52:30,20-Jul-2020 01:52:30,33.15708,-120.00652,086.7 055.0,086.7,055.0,10.000,10.071,,17.7964,,17.7958,,17.7961,33.6899,,33.6901,33.6902,,33.6918,33.6910,5.4691,,5.6970,5.6600,4.0724,,5.7808,4.5503,5.1052,238.451,248.4309,219.3193,177.556,417.6723,181.3447,200.3320,0.1160,,0.9399,0.7175,-99.0,,-99.0,-99.0,24.3189,,24.3193,,0.8452,80.9522,,8.199,,1.9043E+00,,1.0000E-12,,17.7948,17.7941,0.0418,,100.638,74.936,10,18.569,33.7092,, ,,,,,,,
CalCOFI,2007SR,040,42,2007_040d,20-Jul-2020 09:52:32,20-Jul-2020 01:52:32,33.15708,-120.00652,086.7 055.0,086.7,055.0,11.000,11.079,,17.7778,,17.7780,,17.7779,33.6890,,33.6892,33.6894,,33.6910,33.6901,5.4793,,5.7076,5.6706,4.0763,,5.7902,4.5595,5.1151,238.894,248.8933,219.7068,177.727,418.7558,181.7085,200.7077,0.1142,,0.9187,0.7037,-99.0,,-99.0,-99.0,24.3227,,24.3230,,0.8441,80.9755,,8.198,,1.9043E+00,,1.0000E-12,,17.7760,17.7762,0.0454,,100.789,74.983,11,18.573,33.7085,5.618,245.24,0.732,0.178,0.0,0.00,0.00,0.12,0.72
CalCOFI,2007SR,040,42,2007_040d,20-Jul-2020 09:52:33,20-Jul-2020 01:52:33,33.15708,-120.00652,086.7 055.0,086.7,055.0,12.000,12.086,,17.7799,,17.7815,,17.7807,33.6890,,33.6892,33.6894,,33.6910,33.6901,5.4749,,5.7030,5.6660,4.0770,,5.7918,4.5611,5.1136,238.703,248.6940,219.5397,177.755,418.2887,181.7681,200.6539,0.1182,,0.9658,0.7344,-99.0,,-99.0,-99.0,24.3223,,24.3222,,0.8432,80.9947,,8.198,,1.9043E+00,,1.0000E-12,,17.7779,17.7795,0.0490,,100.713,75.000,,,,,,,,,,,,
CalCOFI,2007SR,040,42,2007_040d,20-Jul-2020 09:52:36,20-Jul-2020 01:52:36,33.15708,-120.00652,086.7 055.0,086.7,055.0,13.000,13.093,,17.7703,,17.7684,,17.7694,33.6886,,33.6888,33.6894,,33.6910,33.6899,5.4708,,5.6987,5.6617,4.0783,,5.7949,4.5642,5.1130,238.525,248.5081,219.3840,177.809,417.8533,181.8830,200.6335,0.1184,,0.9682,0.7359,-99.0,,-99.0,-99.0,24.3244,,24.3254,,0.8444,80.9690,,8.197,,1.9043E+00,,1.0000E-12,,17.7681,17.7662,0.0527,,100.618,75.004,,,,,,,,,,,,
CalCOFI,2007SR,040,42,2007_040d,20-Jul-2020 09:52:38,20-Jul-2020 01:52:38,33.15708,-120.00652,086.7 055.0,086.7,055.0,14.000,14.100,,17.7753,,17.7871,,17.7812,33.6888,,33.6890,33.6905,,33.6921,33.6906,5.4721,,5.7001,5.6631,4.0773,,5.7925,4.5618,5.1125,238.581,248.5666,219.4330,177.768,417.9903,181.7958,200.6144,0.1188,,0.9729,0.7390,-99.0,,-99.0,-99.0,24.3233,,24.3218,,0.8455,80.9472,,8.197,,1.9043E+00,,1.0000E-12,,17.7729,17.7847,0.0563,,100.652,75.014,,,,,,,,,,,,
CalCOFI,2007SR,040,42,2007_040d,20-Jul-2020 09:52:39,20-Jul-2020 01:52:39,33.15707,-120.00652,086.7 055.0,086.7,055.0,15.000,15.107,,17.7621,,17.7653,,17.7637,33.6881,,33.6883,33.6889,,33.6905,33.6894,5.4625,,5.6901,5.6531,4.0796,,5.7980,4.5672,5.1102,238.160,248.1271,219.0648,177.869,416.9606,182.0107,200.5378,0.1204,,0.9917,0.7512,-99.0,,-99.0,-99.0,24.3260,,24.3258,,0.8427,81.0042,,8.197,,1.9043E+00,,1.0000E-12,,17.7595,17.7627,0.0599,,100.449,75.025,,,,,,,,,,,,
CalCOFI,2007SR,040,42,2007_040d,20-Jul-2020 09:52:42,20-Jul-2020 01:52:42,33.15706,-120.00652,086.7 055.0,086.7,055.0,16.000,16.114,,17.7404,,17.7324,,17.7364,33.6856,,33.6858,33.6860,,33.6876,33.6867,5.4583,,5.6857,5.6487,4.0869,,5.8155,4.5844,5.1166,237.977,247.9361,218.9047,178.185,416.5130,182.6832,200.7940,0.1239,,1.0330,0.7777,-99.0,,-99.0,-99.0,24.3294,,24.3316,,0.8410,81.0378,,8.196,,1.9043E+00,,1.0000E-12,,17.7377,17.7297,0.0635,,100.329,75.110,,,,,,,,,,,,
CalCOFI,2007SR,040,42,2007_040d,20-Jul-2020 09:52:44,20-Jul-2020 01:52:44,33.15706,-120.00652,086.7 055.0,086.7,055.0,17.000,17.122,,17.6217,,17.6241,,17.6229,33.6802,,33.6804,33.6807,,33.6823,33.6814,5.4776,,5.7058,5.6688,4.0960,,5.8372,4.6058,5.1373,238.815,248.8109,219.6377,178.578,418.5626,183.5194,201.5786,0.1299,,1.1038,0.8229,-99.0,,-99.0,-99.0,24.3540,,24.3537,,0.8413,81.0313,,8.196,,1.9043E+00,,1.0000E-12,,17.6189,17.6213,0.0671,,100.454,75.120,,,,,,,,,,,,
CalCOFI,2007SR,040,42,2007_040d,20-Jul-2020 09:52:46,20-Jul-2020 01:52:46,33.15706,-120.00652,086.7 055.0,086.7,055.0,18.000,18.129,,17.5821,,17.5793,,17.5807,33.6805,,33.6807,33.6818,,33.6834,33.6821,5.4781,,5.7064,5.6694,4.1001,,5.8470,4.6155,5.1425,238.832,248.8286,219.6526,178.757,418.6042,183.9003,201.7765,0.1332,,1.1427,0.8476,-99.0,,-99.0,-99.0,24.3638,,24.3654,,0.8430,80.9977,,8.196,,1.9043E+00,,1.0000E-12,,17.5791,17.5762,0.0707,,100.386,75.132,,,,,,,,,,,,
CalCOFI,2007SR,040,42,2007_040d,20-Jul-2020 09:52:48,20-Jul-2020 01:52:48,33.15706,-120.00652,086.7 055.0,086.7,055.0,19.000,19.136,,17.5490,,17.5368,,17.5429,33.6797,,33.6799,33.6821,,33.6837,33.6818,5.4770,,5.7052,5.6682,4.1080,,5.8658,4.6341,5.1512,238.782,248.7764,219.6088,179.097,418.4819,184.6239,202.1164,0.1331,,1.1415,0.8469,-99.0,,-99.0,-99.0,24.3711,,24.3759,,0.8410,81.0383,,8.193,,1.9043E+00,,1.0000E-12,,17.5458,17.5337,0.0743,,100.302,75.215,,,,,,,,,,,,
CalCOFI,2007SR,040,42,2007_040d,20-Jul-2020 09:52:50,20-Jul-2020 01:52:50,33.15706,-120.00652,086.7 055.0,086.7,055.0,20.000,20.143,,17.4902,,17.4819,,17.4861,33.6771,,33.6773,33.6764,,33.6780,33.6777,5.4837,,5.7122,5.6752,4.1121,,5.8756,4.6437,5.1595,239.074,249.0812,219.8642,179.273,419.1961,184.9984,202.4313,0.1365,,1.1816,0.8721,-99.0,,-99.0,-99.0,24.3833,,24.3848,,0.8400,81.0594,,8.192,,1.9043E+00,,1.0000E-12,,17.4869,17.4786,0.0779,,100.312,75.208,20,17.849,33.6907,5.705,249.05,0.808,0.213,0.0,0.00,0.09,0.17,0.84
CalCOFI,2007SR,040,42,2007_040d,20-Jul-2020 09:52:52,20-Jul-2020 01:52:52,33.15706,-120.00651,086.7 055.0,086.7,055.0,21.000,21.150,,17.4245,,17.4241,,17.4243,33.6753,,33.6755,33.6774,,33.6790,33.6773,5.4702,,5.6981,5.6611,4.1192,,5.8926,4.6605,5.1608,238.482,248.4633,219.3464,179.584,417.7481,185.6602,202.5033,0.1456,,1.2891,0.9390,-99.0,,-99.0,-99.0,24.3977,,24.3994,,0.8414,81.0300,,8.193,,1.9043E+00,,1.0000E-12,,17.4210,17.4206,0.0814,,99.938,75.257,,,,,,,,,,,,
CalCOFI,2007SR,040,42,2007_040d,20-Jul-2020 09:52:54,20-Jul-2020 01:52:54,33.15706,-120.00650,086.7 055.0,086.7,055.0,22.000,22.158,,17.3621,,17.3642,,17.3632,33.6740,,33.6742,33.6734,,33.6750,33.6746,5.4646,,5.6923,5.6553,4.1319,,5.9229,4.6904,5.1729,238.234,248.2044,219.1295,180.136,417.1415,186.8348,202.9822,0.1491,,1.3304,0.9644,-99.0,,-99.0,-99.0,24.4117,,24.4107,,0.8417,81.0248,,8.191,,1.9043E+00,,1.0000E-12,,17.3584,17.3605,0.0850,,99.715,75.400,,,,,,,,,,,,
CalCOFI,2007SR,040,42,2007_040d,20-Jul-2020 09:52:56,20-Jul-2020 01:52:56,33.15706,-120.00650,086.7 055.0,086.7,055.0,23.000,23.165,,17.1921,,17.1802,,17.1862,33.6642,,33.6644,33.6611,,33.6627,33.6636,5.5061,,5.7356,5.6986,4.1463,,5.9573,4.7243,5.2115,240.037,250.0865,220.7065,180.757,421.5514,188.1563,204.4314,0.1671,,1.5430,1.0928,-99.0,,-99.0,-99.0,24.4446,,24.4451,,0.8444,80.9689,,8.189,,1.9043E+00,,1.0000E-12,,17.1883,17.1764,0.0885,,100.140,75.391,,,,,,,,,,,,
CalCOFI,2007SR,040,42,2007_040d,20-Jul-2020 09:52:57,20-Jul-2020 01:52:57,33.15706,-120.00650,086.7 055.0,086.7,055.0,24.000,24.172,,17.0738,,17.0715,,17.0727,33.6653,,33.6655,33.6645,,33.6661,33.6658,5.4947,,5.7237,5.6867,4.1519,,5.9706,4.7374,5.2121,239.529,249.5562,220.2622,180.994,420.3089,188.6606,204.4614,0.1802,,1.6979,1.1835,-99.0,,-99.0,-99.0,24.4736,,24.4735,,0.8438,80.9827,,8.186,,1.9043E+00,,1.0000E-12,,17.0699,17.0675,0.0920,,99.705,75.335,,,,,,,,,,,,
CalCOFI,2007SR,040,42,2007_040d,20-Jul-2020 09:53:00,20-Jul-2020 01:53:00,33.15704,-120.00650,086.7 055.0,086.7,055.0,25.000,25.179,,17.0521,,17.0737,,17.0629,33.6629,,33.6631,33.6687,,33.6703,33.6667,5.4145,,5.6399,5.6029,4.1649,,6.0017,4.7681,5.1855,236.036,245.9099,217.2070,181.561,411.7655,189.8672,203.5371,0.2328,,2.3208,1.5255,-99.0,,-99.0,-99.0,24.4769,,24.4762,,0.8459,80.9388,,8.179,,1.9043E+00,,1.0000E-12,,17.0480,17.0696,0.0955,,98.208,75.577,,,,,,,,,,,,
CalCOFI,2007SR,040,42,2007_040d,20-Jul-2020 09:53:02,20-Jul-2020 01:53:02,33.15705,-120.00650,086.7 055.0,086.7,055.0,26.000,26.187,,16.5608,,16.5837,,16.5723,33.6378,,33.6380,33.6347,,33.6363,33.6372,5.4479,,5.6748,5.6378,4.2076,,6.1036,4.8686,5.2532,237.469,247.4058,218.4604,183.405,415.2705,193.7911,206.1258,0.2675,,2.7327,1.7314,-99.0,,-99.0,-99.0,24.5724,,24.5648,,0.8679,80.4953,,8.174,,1.9043E+00,,1.0000E-12,,16.5567,16.5795,0.0989,,97.865,75.615,,,,,,,,,,,,
CalCOFI,2007SR,040,42,2007_040d,20-Jul-2020 09:53:04,20-Jul-2020 01:53:04,33.15704,-120.00650,086.7 055.0,086.7,055.0,27.000,27.194,,16.4544,,16.4606,,16.4575,33.6460,,33.6462,33.6460,,33.6476,33.6469,5.4144,,5.6398,5.6028,4.2154,,6.1222,4.8869,5.2449,236.001,245.8733,217.1764,183.739,411.6799,194.5019,205.8392,0.2812,,2.8955,1.8084,-99.0,,-99.0,-99.0,24.6034,,24.6020,,0.8675,80.5038,,8.172,,1.9043E+00,,1.0000E-12,,16.4500,16.4563,0.1023,,97.066,75.580,,,,,,,,,,,,
CalCOFI,2007SR,040,42,2007_040d,20-Jul-2020 09:53:06,20-Jul-2020 01:53:06,33.15704,-120.00649,086.7 055.0,086.7,055.0,28.000,28.201,,16.3993,,16.4002,,16.3998,33.6442,,33.6444,33.6448,,33.6464,33.6454,5.4068,,5.6319,5.5948,4.2251,,6.1454,4.9098,5.2523,235.668,245.5257,216.8851,184.160,410.8655,195.3978,206.1415,0.2634,,2.6840,1.7079,-99.0,,-99.0,-99.0,24.6147,,24.6149,,0.8566,80.7237,,8.169,,1.9043E+00,,1.0000E-12,,16.3948,16.3958,0.1056,,96.825,75.665,,,,,,,,,,,,
CalCOFI,2007SR,040,42,2007_040d,20-Jul-2020 09:53:08,20-Jul-2020 01:53:08,33.15704,-120.00650,086.7 055.0,086.7,055.0,29.000,29.208,,16.1842,,16.1912,,16.1877,33.6311,,33.6313,33.6301,,33.6317,33.6315,5.4236,,5.6494,5.6124,4.2366,,6.1728,4.9369,5.2747,236.389,246.2784,217.5157,184.653,412.6289,196.4469,206.9813,0.2371,,2.3718,1.5518,-99.0,,-99.0,-99.0,24.6539,,24.6516,,0.8291,81.2789,,8.164,,1.9043E+00,,1.0000E-12,,16.1796,16.1866,0.1090,,96.711,75.554,,,,,,,,,,,,
CalCOFI,2007SR,040,42,2007_040d,20-Jul-2020 09:53:10,20-Jul-2020 01:53:10,33.15704,-120.00650,086.7 055.0,086.7,055.0,30.000,30.216,,16.0876,,16.0909,,16.0893,33.6320,,33.6322,33.6330,,33.6346,33.6334,5.4349,,5.6612,5.6242,4.2429,,6.1879,4.9517,5.2880,236.876,246.7868,217.9417,184.926,413.8201,197.0278,207.4848,0.2159,,2.1205,1.4195,-99.0,,-99.0,-99.0,24.6767,,24.6767,,0.8172,81.5219,,8.159,,1.9043E+00,,1.0000E-12,,16.0829,16.0862,0.1123,,96.730,75.521,30,16.358,33.6565,,249.62,1.464,0.509,0.23,0.028,0.38,0.27,1.00
CalCOFI,2007SR,040,42,2007_040d,20-Jul-2020 09:53:12,20-Jul-2020 01:53:12,33.15704,-120.00650,086.7 055.0,086.7,055.0,31.000,31.223,,16.0428,,16.0501,,16.0465,33.6313,,33.6315,33.6316,,33.6332,33.6324,5.4307,,5.6568,5.6198,4.2414,,6.1843,4.9482,5.2840,236.693,246.5957,217.7816,184.858,413.3725,196.8831,207.3324,0.1997,,1.9286,1.3145,-99.0,,-99.0,-99.0,24.6864,,24.6849,,0.8045,81.7808,,8.157,,1.9043E+00,,1.0000E-12,,16.0379,16.0452,0.1156,,96.571,75.433,,,,,,,,,,,,
CalCOFI,2007SR,040,42,2007_040d,20-Jul-2020 09:53:14,20-Jul-2020 01:53:14,33.15704,-120.00650,086.7 055.0,086.7,055.0,32.000,32.230,,15.9988,,15.9999,,15.9994,33.6295,,33.6297,33.6308,,33.6324,33.6311,5.3691,,5.5925,5.5554,4.2471,,6.1979,4.9616,5.2585,234.007,243.7918,215.4323,185.105,406.8029,197.4087,206.4205,0.2069,,2.0139,1.3616,-99.0,,-99.0,-99.0,24.6950,,24.6957,,0.7968,81.9391,,8.153,,1.9043E+00,,1.0000E-12,,15.9938,15.9948,0.1188,,95.393,75.460,,,,,,,,,,,,
CalCOFI,2007SR,040,42,2007_040d,20-Jul-2020 09:53:16,20-Jul-2020 01:53:16,33.15704,-120.00648,086.7 055.0,086.7,055.0,33.000,33.237,,15.9349,,15.9440,,15.9395,33.6262,,33.6264,33.6270,,33.6286,33.6275,5.2229,,5.4397,5.4026,4.2689,,6.2499,5.0129,5.2078,227.629,237.1338,209.8537,186.052,391.2032,199.4239,204.6388,0.1922,,1.8399,1.2647,-99.0,,-99.0,-99.0,24.7069,,24.7055,,0.7916,82.0454,,8.152,,1.9043E+00,,1.0000E-12,,15.9298,15.9388,0.1221,,92.676,75.762,,,,,,,,,,,,
CalCOFI,2007SR,040,42,2007_040d,20-Jul-2020 09:53:17,20-Jul-2020 01:53:17,33.15704,-120.00649,086.7 055.0,086.7,055.0,34.000,34.245,,15.6799,,15.6714,,15.6757,33.5967,,33.5969,33.5908,,33.5924,33.5947,5.2141,,5.4305,5.3934,4.2904,,6.3013,5.0635,5.2285,227.240,236.7277,209.5134,186.984,390.2518,201.4072,205.4603,0.1866,,1.7736,1.2270,-99.0,,-99.0,-99.0,24.7413,,24.7387,,0.7901,82.0755,,8.147,,1.9043E+00,,1.0000E-12,,15.6746,15.6661,0.1254,,92.040,75.719,,,,,,,,,,,,
CalCOFI,2007SR,040,42,2007_040d,20-Jul-2020 09:53:19,20-Jul-2020 01:53:19,33.15704,-120.00649,086.7 055.0,086.7,055.0,35.000,35.252,,15.1355,,15.1202,,15.1279,33.5723,,33.5725,33.5805,,33.5821,33.5773,5.2346,,5.4519,5.4148,4.3335,,6.4042,5.1650,5.2899,228.112,237.6380,210.2761,188.843,392.3846,205.3630,207.8196,0.2020,,1.9559,1.3296,-99.0,,-99.0,-99.0,24.8428,,24.8524,,0.7880,82.1205,,8.139,,1.9043E+00,,1.0000E-12,,15.1302,15.1149,0.1285,,91.399,75.646,,,,,,,,,,,,
CalCOFI,2007SR,040,42,2007_040d,20-Jul-2020 09:53:22,20-Jul-2020 01:53:22,33.15704,-120.00648,086.7 055.0,086.7,055.0,36.000,36.259,,14.7835,,14.7973,,14.7904,33.5673,,33.5675,33.5730,,33.5746,33.5711,5.2307,,5.4479,5.4107,4.3456,,6.4331,5.1935,5.3021,227.926,237.4439,210.1134,189.356,391.9296,206.4547,208.2841,0.1944,,1.8659,1.2794,-99.0,,-99.0,-99.0,24.9155,,24.9169,,0.7825,82.2321,,8.126,,1.9043E+00,,1.0000E-12,,14.7782,14.7920,0.1316,,90.689,75.366,,,,,,,,,,,,
CalCOFI,2007SR,040,42,2007_040d,20-Jul-2020 09:53:24,20-Jul-2020 01:53:24,33.15704,-120.00650,086.7 055.0,086.7,055.0,37.000,37.267,,14.7148,,14.7278,,14.7213,33.5725,,33.5727,33.5725,,33.5741,33.5734,5.2276,,5.4446,5.4075,4.3427,,6.4261,5.1866,5.2971,227.786,237.2977,209.9910,189.226,391.5872,206.1781,208.0846,0.2059,,2.0020,1.3551,-99.0,,-99.0,-99.0,24.9343,,24.9315,,0.7845,82.1905,,8.120,,1.9043E+00,,1.0000E-12,,14.7093,14.7224,0.1347,,90.513,75.210,,,,,,,,,,,,
CalCOFI,2007SR,040,42,2007_040d,20-Jul-2020 09:53:25,20-Jul-2020 01:53:25,33.15704,-120.00650,086.7 055.0,086.7,055.0,38.000,38.274,,14.6638,,14.6670,,14.6654,33.5730,,33.5732,33.5742,,33.5758,33.5745,5.2236,,5.4404,5.4033,4.3407,,6.4214,5.1819,5.2926,227.609,237.1129,209.8362,189.137,391.1543,205.9887,207.9125,0.1983,,1.9121,1.3052,-99.0,,-99.0,-99.0,24.9456,,24.9459,,0.7868,82.1439,,8.116,,1.9043E+00,,1.0000E-12,,14.6582,14.6614,0.1377,,90.352,75.085,,,,,,,,,,,,
CalCOFI,2007SR,040,42,2007_040d,20-Jul-2020 09:53:28,20-Jul-2020 01:53:28,33.15704,-120.00649,086.7 055.0,086.7,055.0,39.000,39.281,,14.6286,,14.6310,,14.6298,33.5733,,33.5735,33.5753,,33.5769,33.5752,5.1822,,5.3972,5.3601,4.3368,,6.4120,5.1727,5.2664,225.802,235.2266,208.2556,188.965,386.7346,205.6227,206.9392,0.1881,,1.7913,1.2372,-99.0,,-99.0,-99.0,24.9534,,24.9544,,0.7858,82.1637,,8.112,,1.9043E+00,,1.0000E-12,,14.6228,14.6252,0.1407,,89.572,74.964,,,,,,,,,,,,
CalCOFI,2007SR,040,42,2007_040d,20-Jul-2020 09:53:30,20-Jul-2020 01:53:30,33.15704,-120.00650,086.7 055.0,086.7,055.0,40.000,40.288,,14.5119,,14.5296,,14.5208,33.5707,,33.5709,33.5713,,33.5729,33.5719,5.1487,,5.3622,5.3250,4.3363,,6.4108,5.1716,5.2483,224.339,233.6994,206.9760,188.941,383.1564,205.5716,206.2738,0.1828,,1.7286,1.2013,-99.0,,-99.0,-99.0,24.9763,,24.9730,,0.7809,82.2659,,8.108,,1.9043E+00,,1.0000E-12,,14.5061,14.5237,0.1437,,88.784,74.802,40,14.677,33.5748,,237.91,1.133,0.448,3.01,0.135,0.98,0.56,3.28
CalCOFI,2007SR,040,42,2007_040d,20-Jul-2020 09:53:32,20-Jul-2020 01:53:32,33.15706,-120.00650,086.7 055.0,086.7,055.0,41.000,41.296,,14.3984,,14.4139,,14.4062,33.5682,,33.5684,33.5695,,33.5711,33.5698,5.1428,,5.3560,5.3189,4.3402,,6.4202,5.1808,5.2499,224.074,233.4227,206.7442,189.107,382.5082,205.9248,206.3345,0.1737,,1.6210,1.1388,-99.0,,-99.0,-99.0,24.9984,,24.9961,,0.7700,82.4889,,8.104,,1.9043E+00,,1.0000E-12,,14.3924,14.4079,0.1467,,88.478,74.694,,,,,,,,,,,,
CalCOFI,2007SR,040,42,2007_040d,20-Jul-2020 09:53:33,20-Jul-2020 01:53:33,33.15706,-120.00650,086.7 055.0,086.7,055.0,42.000,42.303,,14.2920,,14.3047,,14.2984,33.5661,,33.5663,33.5658,,33.5674,33.5669,5.1462,,5.3596,5.3224,4.3416,,6.4235,5.1840,5.2532,224.219,233.5741,206.8710,189.164,382.8628,206.0461,206.4586,0.1603,,1.4627,1.0448,-99.0,,-99.0,-99.0,25.0193,,25.0164,,0.7603,82.6899,,8.099,,1.9043E+00,,1.0000E-12,,14.2860,14.2986,0.1497,,88.346,74.552,,,,,,,,,,,,
CalCOFI,2007SR,040,42,2007_040d,20-Jul-2020 09:53:36,20-Jul-2020 01:53:36,33.15706,-120.00650,086.7 055.0,086.7,055.0,43.000,43.310,,14.2012,,14.2038,,14.2025,33.5637,,33.5639,33.5665,,33.5681,33.5660,5.1413,,5.3544,5.3173,4.3421,,6.4247,5.1852,5.2513,224.000,233.3455,206.6795,189.181,382.3272,206.0823,206.3809,0.1543,,1.3918,1.0020,-99.0,,-99.0,-99.0,25.0365,,25.0381,,0.7539,82.8216,,8.094,,1.9043E+00,,1.0000E-12,,14.1950,14.1975,0.1527,,88.098,74.409,,,,,,,,,,,,
CalCOFI,2007SR,040,42,2007_040d,20-Jul-2020 09:53:38,20-Jul-2020 01:53:38,33.15706,-120.00650,086.7 055.0,086.7,055.0,44.000,44.318,,14.1266,,14.1249,,14.1258,33.5644,,33.5646,33.5651,,33.5667,33.5657,5.1338,,5.3466,5.3095,4.3347,,6.4070,5.1678,5.2387,223.670,233.0010,206.3908,188.858,381.5201,205.3950,205.8929,0.1491,,1.3304,0.9644,-99.0,,-99.0,-99.0,25.0528,,25.0536,,0.7457,82.9932,,8.089,,1.9043E+00,,1.0000E-12,,14.1203,14.1185,0.1556,,87.837,74.164,,,,,,,,,,,,
CalCOFI,2007SR,040,42,2007_040d,20-Jul-2020 09:53:40,20-Jul-2020 01:53:40,33.15706,-120.00650,086.7 055.0,086.7,055.0,45.000,45.325,,14.0927,,14.0955,,14.0941,33.5648,,33.5650,33.5660,,33.5676,33.5663,5.1357,,5.3486,5.3114,4.3316,,6.3996,5.1605,5.2360,223.752,233.0866,206.4626,188.722,381.7206,205.1056,205.7841,0.1449,,1.2808,0.9339,-99.0,,-99.0,-99.0,25.0601,,25.0605,,0.7435,83.0380,,8.086,,1.9043E+00,,1.0000E-12,,14.0862,14.0890,0.1585,,87.810,74.067,,,,,,,,,,,,
CalCOFI,2007SR,040,42,2007_040d,20-Jul-2020 09:53:42,20-Jul-2020 01:53:42,33.15706,-120.00650,086.7 055.0,086.7,055.0,46.000,46.332,,14.0358,,14.0381,,14.0370,33.5630,,33.5632,33.5642,,33.5658,33.5645,5.1322,,5.3449,5.3078,4.3299,,6.3956,5.1565,5.2322,223.599,232.9269,206.3287,188.642,381.3464,204.9353,205.6320,0.1387,,1.2076,0.8884,-99.0,,-99.0,-99.0,25.0707,,25.0711,,0.7389,83.1345,,8.083,,1.9043E+00,,1.0000E-12,,14.0292,14.0315,0.1615,,87.649,73.950,,,,,,,,,,,,
CalCOFI,2007SR,040,42,2007_040d,20-Jul-2020 09:53:44,20-Jul-2020 01:53:44,33.15706,-120.00650,086.7 055.0,086.7,055.0,47.000,47.340,,13.9850,,13.9854,,13.9852,33.5626,,33.5628,33.5643,,33.5659,33.5644,5.1262,,5.3387,5.3015,4.3263,,6.3870,5.1480,5.2248,223.337,232.6534,206.0996,188.483,380.7056,204.5970,205.3483,0.1288,,1.0908,0.8147,-99.0,,-99.0,-99.0,25.0809,,25.0821,,0.7344,83.2278,,8.079,,1.9043E+00,,1.0000E-12,,13.9782,13.9787,0.1644,,87.457,73.810,,,,,,,,,,,,
CalCOFI,2007SR,040,42,2007_040d,20-Jul-2020 09:53:46,20-Jul-2020 01:53:46,33.15706,-120.00650,086.7 055.0,086.7,055.0,48.000,48.347,,13.9379,,13.9368,,13.9374,33.5611,,33.5613,33.5620,,33.5636,33.5625,5.1106,,5.3224,5.2852,4.3258,,6.3858,5.1469,5.2161,222.654,231.9404,205.5022,188.463,379.0351,204.5544,205.0283,0.1262,,1.0601,0.7951,-99.0,,-99.0,-99.0,25.0896,,25.0904,,0.7310,83.2976,,8.078,,1.9043E+00,,1.0000E-12,,13.9310,13.9300,0.1673,,87.106,73.729,,,,,,,,,,,,
CalCOFI,2007SR,040,42,2007_040d,20-Jul-2020 09:53:49,20-Jul-2020 01:53:49,33.15706,-120.00651,086.7 055.0,086.7,055.0,49.000,49.354,,13.8808,,13.8660,,13.8734,33.5582,,33.5584,33.5593,,33.5609,33.5597,5.0393,,5.2479,5.2107,4.3275,,6.3898,5.1509,5.1808,219.544,228.6939,202.7820,188.533,371.4285,204.7034,203.7427,0.1199,,0.9858,0.7474,-99.0,,-99.0,-99.0,25.0991,,25.1031,,0.7265,83.3919,,8.073,,1.9043E+00,,1.0000E-12,,13.8738,13.8590,0.1702,,85.789,73.650,,,,,,,,,,,,
CalCOFI,2007SR,040,42,2007_040d,20-Jul-2020 09:53:51,20-Jul-2020 01:53:51,33.15706,-120.00652,086.7 055.0,086.7,055.0,50.000,50.362,,13.7654,,13.7629,,13.7642,33.5548,,33.5550,33.5558,,33.5574,33.5562,4.9966,,5.2032,5.1660,4.3340,,6.4054,5.1662,5.1661,217.681,226.7491,201.1525,188.814,366.8718,205.3013,203.2269,0.1113,,0.8845,0.6813,-99.0,,-99.0,-99.0,25.1203,,25.1216,,0.7228,83.4675,,8.070,,1.9043E+00,,1.0000E-12,,13.7584,13.7558,0.1730,,84.862,73.604,50,13.939,33.5596,5.325,232.48,0.752,0.340,4.94,0.192,0.90,0.71,4.29